Regional Weather Roundup
Issued by NWS Nashville, TN

Home | Current Version | Previous Version | Text Only | Print | Product List | Glossary On
Versions: 1 2 3 4 5 6 7 8 9 10 11 12 13 14 15 16 17 18 19 20 21 22 23 24 25 26 27 28 29 30 31 32 33 34 35 36 37 38 39 40 41 42 43 44 45 46 47 48 49 50
000
ASUS44 KOHX 240510
RWROHX
MIDDLE TENNESSEE HOURLY WEATHER ROUNDUP
NATIONAL WEATHER SERVICE NASHVILLE TN
1200 AM CDT WED MAY 24 2017

NOTE: "FAIR" INDICATES FEW OR NO CLOUDS BELOW 12,000 FEET WITH
NO SIGNIFICANT WEATHER AND/OR OBSTRUCTIONS TO VISIBILITY.

* THESE REPORTS ARE NOT UNDER NWS QUALITY CONTROL AND MAY NOT
  REPORT WEATHER SUCH AS PRECIPITATION AND FOG.


TNZ005>011-023>034-057-059-062>066-078-080-240600
...NORTHERN MIDDLE TENNESSEE...

CITY           SKY/WX    TMP DP  RH WIND       PRES   REMARKS
CLARKSVILLE    CLOUDY    65  57  75 CALM      29.64F
CROSSVILLE     MOCLDY    60  59  96 SE3       29.69F FOG
GALLATIN       CLOUDY    64  59  82 CALM      29.66F
DICKSON        MOCLDY    59  57  92 CALM      29.64F
LEBANON        MOCLDY    62  59  90 CALM      29.63F
NASHVILLE      CLOUDY    67  58  72 CALM      29.64F
PORTLAND       CLOUDY    63  59  88 CALM      29.63F
SMYRNA         CLOUDY    65  60  84 CALM      29.65F
SPARTA         PTCLDY    61  59  94 CALM      29.65S
SPRINGFIELD    CLOUDY    63  59  88 CALM      29.63F
WEST NASHVILLE CLOUDY    63  59  88 CALM      29.62F
$$
TNZ056-058-060-061-075>077-079-093>097-240600
...SOUTHERN MIDDLE TENNESSEE...

CITY           SKY/WX    TMP DP  RH WIND       PRES   REMARKS
COLUMBIA       CLOUDY    63  61  94 CALM      29.63F
FAYETTEVILLE   CLOUDY    64  63  94 SE5       29.66S
MCMINNVILLE    CLOUDY    64  64 100 CALM      29.66F
MURFREESBORO   CLOUDY    66  61  84 CALM      29.64F
PULASKI        CLOUDY    63  63 100 CALM      29.66S
SHELBYVILLE    CLOUDY    64  63  94 S3        29.65F
TULLAHOMA      CLOUDY    64  61  88 S3        29.68S
WINCHESTER     CLOUDY    63  63 100 CALM        N/A
$$


...KEY TO REMARKS...
VSB - VISIBILITY IN MILES
WCI - WIND CHILL INDEX
HX  - HEAT INDEX




USA.gov is the U.S. government's official web portal to all federal, state and local government web resources and services.